Weather History for San Nicolas Island, CA

Change the Weather History Date:

Tuesday, January 1, 2013

  Actual Average Record
Temperature  
Mean Temperature 60 °F -  
Max Temperature 69 °F 59 °F 69 °F (2013)
Min Temperature 52 °F 49 °F 41 °F (2012)
Degree Days  
Heating Degree Days 4    
Growing Degree Days 10 (Base 50)    
Moisture  
Dew Point 41 °F    
Average Humidity 50    
Maximum Humidity 63    
Minimum Humidity 38    
Precipitation  
Precipitation 0.00 in - - ()
Sea Level Pressure  
Sea Level Pressure 30.15 in    
Wind  
Wind Speed 3 mph (NNW)    
Max Wind Speed 10 mph    
Max Gust Speed -    
Visibility 10 miles    
Events      
Averages and records for this station are not official NWS values.
T = Trace of Precipitation, MM = Missing Value Source: NWS Daily Summary

Daily Weather History Graph

Daily Weather History Graph

Search for Another Location

Airport:

Trip Planner

Search our weather history database for the weather conditions in past years. The results will help you decide how hot, cold, wet, or windy it might be!

Date:

Astronomy

Jan. 01, 2013 Rise Set
Actual Time 7:01 AM PST 5:01 PM PST
Civil Twilight 6:34 AM PST 5:29 PM PST
Nautical Twilight 6:03 AM PST 6:00 PM PST
Astronomical Twilight 5:33 AM PST 6:30 PM PST
Moon 9:23 PM PST (1/1) 9:29 AM PST (1/1)
Length of Visible Light 10h 55m
Length of Day
10h 00m
Waning Gibbous, 82% of the Moon is Illuminated
Jan 1
Waning Gibbous
Jan 4
Last Quarter
Jan 11
New
Jan 18
First Quarter
Jan 26
Full

Hourly Weather History & Observations

Time (PST) Temp. Dew Point Humidity Pressure Visibility Wind Dir Wind Speed Gust Speed Precip Events Conditions
12:53 AM 62.1 °F 39.0 °F 43% 30.22 in 10.0 mi WNW 3.5 mph - N/A   Clear
1:53 AM 61.0 °F 39.0 °F 44% 30.21 in 10.0 mi Calm Calm - N/A   Clear
2:53 AM 61.0 °F 39.9 °F 46% 30.20 in 10.0 mi Calm Calm - N/A   Clear
3:53 AM 52.0 °F 39.9 °F 63% 30.19 in 10.0 mi Calm Calm - N/A   Clear
4:53 AM 55.9 °F 39.9 °F 55% 30.17 in 10.0 mi Calm Calm - N/A   Clear
5:53 AM 62.1 °F 37.9 °F 41% 30.18 in 10.0 mi West 3.5 mph - N/A   Clear
6:53 AM 61.0 °F 37.9 °F 42% 30.18 in 10.0 mi Calm Calm - N/A   Clear
7:53 AM 60.1 °F 39.9 °F 47% 30.19 in 10.0 mi Calm Calm - N/A   Clear
8:53 AM 69.1 °F 42.1 °F 38% 30.21 in 10.0 mi NW 5.8 mph - N/A   Clear
9:53 AM 61.0 °F 44.1 °F 54% 30.19 in 10.0 mi Variable 4.6 mph - N/A   Partly Cloudy
10:53 AM 59.0 °F 44.1 °F 58% 30.18 in 10.0 mi North 5.8 mph - N/A   Clear
11:53 AM 60.1 °F 44.1 °F 55% 30.15 in 10.0 mi ENE 5.8 mph - N/A   Clear
12:53 PM 60.1 °F 44.1 °F 55% 30.12 in 10.0 mi NNE 6.9 mph - N/A   Scattered Clouds
1:53 PM 60.1 °F 46.0 °F 60% 30.10 in 10.0 mi North 5.8 mph - N/A   Overcast
2:53 PM 60.1 °F 44.1 °F 55% 30.09 in 10.0 mi Variable 3.5 mph - N/A   Scattered Clouds
3:53 PM 57.9 °F 42.1 °F 56% 30.10 in 10.0 mi North 4.6 mph - N/A   Clear
4:53 PM 62.1 °F 37.9 °F 41% 30.09 in 10.0 mi NW 4.6 mph - N/A   Mostly Cloudy
5:53 PM 59.0 °F 37.0 °F 44% 30.10 in 10.0 mi NW 5.8 mph - N/A   Mostly Cloudy
6:53 PM 60.1 °F 39.0 °F 46% 30.11 in 10.0 mi NW 6.9 mph - N/A   Overcast
7:53 PM 55.0 °F 42.1 °F 62% 30.11 in 10.0 mi NNW 10.4 mph - N/A   Overcast
8:53 PM 62.1 °F 39.9 °F 44% 30.12 in 10.0 mi NNW 9.2 mph - N/A   Mostly Cloudy
9:53 PM 53.1 °F 37.9 °F 57% 30.12 in 10.0 mi NW 6.9 mph - N/A   Partly Cloudy
10:53 PM 59.0 °F 37.9 °F 46% 30.13 in 10.0 mi NW 6.9 mph - N/A   Clear
11:53 PM 57.9 °F 39.9 °F 51% 30.12 in 10.0 mi NNW 5.8 mph - N/A   Clear